FW6122 Weather Reports


Display with metric or nautical units.
time (UTC)temp
F
wind
direction
speed
MPH
gust
MPH
rain 1hr
in
rain 24hr
in
rain mn
in
humidity
%
barometer
mb
20260506031554 35 198 1.0 5.0 0.00 0.21 0.20 93 1017.3
20260506030055 35 291 2.0 3.0 0.00 0.21 0.20 93 1017.0
20260506024558 35 245 1.0 6.0 0.00 0.21 0.20 92 1016.8
20260506023051 35 259 3.0 7.0 0.00 0.21 0.20 92 1016.6
20260506021600 35 226 2.0 6.0 0.00 0.21 0.20 92 1016.2
20260506020046 36 193 3.0 9.0 0.00 0.21 0.20 91 1015.6
20260506014545 36 233 4.0 8.0 0.00 0.21 0.20 92 1015.5
20260506013054 37 223 3.0 8.0 0.00 0.21 0.20 91 1015.6
20260506011554 37 244 4.0 10.0 0.00 0.21 0.20 90 1015.3
20260506010143 37 233 4.0 8.0 0.00 0.21 0.20 91 1015.3
20260506004542 37 193 4.0 9.0 0.00 0.21 0.20 90 1015.4
20260506003042 38 222 6.0 10.0 0.00 0.21 0.20 89 1015.0
20260506001544 38 224 4.0 9.0 0.00 0.21 0.20 88 1014.8
20260506000045 38 169 4.0 11.0 0.00 0.21 0.20 89 1014.8
20260505234540 39 236 5.0 12.0 0.00 0.21 0.20 89 1014.6
20260505233039 39 213 4.0 11.0 0.00 0.21 0.20 89 1014.5
20260505231548 40 227 5.0 11.0 0.00 0.21 0.20 90 1014.7
20260505230039 39 202 5.0 9.0 0.00 0.21 0.20 92 1014.8
20260505224538 39 223 4.0 11.0 0.00 0.21 0.20 92 1014.7
20260505223037 39 211 5.0 12.0 0.00 0.21 0.20 92 1014.9
20260505221537 41 211 4.0 12.0 0.00 0.21 0.20 95 1015.0
20260505220033 38 216 4.0 12.0 0.00 0.21 0.20 95 1015.2
20260505214546 38 218 4.0 10.0 0.00 0.21 0.20 95 1015.2
20260505213030 38 182 3.0 11.0 0.00 0.21 0.20 95 1015.2
20260505211533 38 225 4.0 9.0 0.00 0.21 0.20 95 1015.3
20260505210028 38 250 5.0 9.0 0.00 0.21 0.20 95 1015.3
20260505204532 37 209 4.0 12.0 0.00 0.21 0.20 95 1015.1
20260505203027 37 207 4.0 10.0 0.00 0.21 0.20 95 1015.1
20260505201527 37 234 5.0 10.0 0.00 0.21 0.20 95 1015.1
20260505200033 37 178 5.0 10.0 0.00 0.21 0.20 95 1015.2
20260505194525 37 237 4.0 10.0 0.00 0.21 0.20 95 1015.4
20260505193025 36 225 4.0 9.0 0.00 0.21 0.20 95 1015.5
20260505191523 37 215 4.0 11.0 0.00 0.21 0.20 95 1015.6
20260505190027 38 231 2.0 6.0 0.00 0.21 0.20 95 1015.5
20260505184522 38 218 4.0 9.0 0.01 0.21 0.20 95 1015.4
20260505183027 38 195 3.0 10.0 0.01 0.21 0.20 95 1015.4
20260505181520 38 211 4.0 11.0 0.01 0.21 0.20 95 1015.1
20260505180016 38 219 5.0 12.0 0.01 0.21 0.20 95 1014.9
20260505174514 38 197 5.0 12.0 0.00 0.20 0.19 95 1014.7
20260505173014 39 232 5.0 11.0 0.00 0.20 0.19 95 1014.6
20260505171510 38 229 4.0 14.0 0.00 0.20 0.19 95 1014.3
20260505170013 37 233 5.0 10.0 0.00 0.20 0.19 95 1014.2
20260505164508 37 207 4.0 9.0 0.00 0.20 0.19 95 1014.0
20260505163012 37 205 5.0 12.0 0.00 0.20 0.19 95 1013.9
20260505161505 38 219 3.0 11.0 0.01 0.20 0.19 95 1013.6
20260505153103 37 232 3.0 8.0 0.02 0.20 0.19 95 1014.0
20260505151607 36 231 3.0 8.0 0.02 0.19 0.18 95 1014.1
20260505140112 36 321 1.0 6.0 0.04 0.16 0.15 95 1013.3
20260505124551 37 183 2.0 9.0 0.05 0.11 0.10 95 1012.9
20260505123053 37 182 2.0 8.0 0.03 0.09 0.08 95 1012.7
20260505121549 37 232 4.0 9.0 0.03 0.08 0.07 95 1012.6
20260505120053 37 211 2.0 7.0 0.02 0.07 0.06 95 1012.5
20260505114557 37 252 2.0 11.0 0.01 0.06 0.05 95 1012.5
20260505113057 37 236 5.0 10.0 0.02 0.06 0.05 95 1012.6
20260505111546 37 290 4.0 10.0 0.01 0.05 0.04 95 1012.6
20260505101550 37 259 4.0 8.0 0.03 0.04 0.03 95 1012.6
20260505100042 37 181 3.0 10.0 0.02 0.03 0.02 95 1012.8
20260505094541 37 167 3.0 14.0 0.01 0.02 0.01 95 1012.8
20260505093037 36 208 3.0 9.0 0.01 0.02 0.01 95 1013.0
20260505091537 36 187 2.0 9.0 0.00 0.01 0.00 95 1013.0
20260505090032 35 109 2.0 8.0 0.00 0.01 0.00 95 1013.1
20260505084529 34 218 3.0 7.0 0.00 0.01 0.00 94 1013.3
20260505083027 34 236 3.0 8.0 0.00 0.01 0.00 94 1013.4
20260505081526 34 234 3.0 12.0 0.00 0.01 0.00 94 1013.7
20260505080024 34 236 6.0 14.0 0.00 0.01 0.00 94 1013.9
20260505074524 34 218 5.0 12.0 0.00 0.01 0.00 94 1013.8
20260505073021 34 199 4.0 10.0 0.00 0.01 0.00 94 1013.7
20260505071529 35 223 5.0 9.0 0.00 0.01 0.00 94 1013.8
20260505070015 34 213 4.0 15.0 0.01 0.01 0.01 94 1013.9
20260505064514 35 168 4.0 9.0 0.01 0.01 0.01 94 1014.1
20260505063016 36 236 5.0 12.0 0.01 0.01 0.01 94 1014.1
20260505061517 36 232 4.0 8.0 0.01 0.01 0.01 94 1014.3
20260505060033 36 237 4.0 10.0 0.00 0.00 0.00 94 1014.4
20260505054513 36 180 4.0 10.0 0.00 0.00 0.00 94 1014.4
20260505053011 35 228 4.0 10.0 0.00 0.00 0.00 94 1014.5
20260505051518 35 247 4.0 12.0 0.00 0.00 0.00 93 1014.6
20260505041510 37 247 3.0 11.0 0.00 0.00 0.00 93 1014.9
20260505040009 38 219 5.0 10.0 0.00 0.00 0.00 93 1014.7
20260505034507 38 246 2.0 8.0 0.00 0.00 0.00 92 1014.6
20260505033007 38 267 3.0 8.0 0.00 0.00 0.00 91 1014.7